{"data":{"norad_id":68355,"intl_designator":"2026-060F","name":"CENTISPACE-2 S6","alt_names":[],"object_type":"PAYLOAD","status":"ACTIVE","operator":null,"country":"PRC","launch_date":"2026-03-22","launch_site_code":"YSLA","launch_vehicle":null,"mission":null,"orbit_class":"UNKNOWN","rcs_meters":null,"size_class":null,"mass_kg":null,"dimensions":null,"purposes":[],"wikipedia_slug":null,"has_3d_model":false,"image_url":null,"decayed_at":null,"tle_current":{"epoch":"2026-09-18T22:18:17.834112Z","epoch_age_seconds":207912,"freshness":"STALE","line1":"1 68355U 26060F   26261.92937308 -.00000082  00000+0  31802-4 0  9997","line2":"2 68355  54.9780  31.1450 0008997 261.6164  98.3793 14.25784776 26328","mean_motion":14.25784776,"eccentricity":0.0008997,"inclination_deg":54.978,"raan_deg":31.145,"arg_perigee_deg":261.6164,"mean_anomaly_deg":98.3793,"bstar":3.1802e-5,"rev_number":2632,"period_min":100.99701050532,"perigee_km":799.39187933342,"apogee_km":812.31875510902,"semimajor_km":7183.9923172212,"source":"CELESTRAK","updated_at":"2026-09-20T09:00:24.159856Z"}}}